{"data":{"norad_id":60590,"epoch":"2026-09-21T21:11:54.901248Z","epoch_age_seconds":69384,"freshness":"FRESH","line1":"1 60590U 24150H   26264.88327432  .00000093  00000+0  13895-4 0  9990","line2":"2 60590  53.1603 111.1770 0001416  96.2350 263.8814 15.34388779118147","mean_motion":15.34388779,"eccentricity":0.0001416,"inclination_deg":53.1603,"raan_deg":111.177,"arg_perigee_deg":96.235,"mean_anomaly_deg":263.8814,"bstar":1.3895e-5,"rev_number":11814,"period_min":93.848444390898,"perigee_km":461.7679238865,"apogee_km":463.70525928764,"semimajor_km":6840.8735915871,"source":"CELESTRAK","updated_at":"2026-09-22T09:00:49.272364Z"}}